Change the Weather History Date:

Sunday, January 20, 2013

  Actual Average Record
Temperature  
Mean Temperature 32 °F -  
Max Temperature 42 °F 24 °F 52 °F (2006)
Min Temperature 21 °F 8 °F -2 °F (2000)
Degree Days  
Heating Degree Days 34    
Moisture  
Dew Point 19 °F    
Average Humidity 56    
Maximum Humidity 70    
Minimum Humidity 29    
Precipitation  
Precipitation 0.00 in - - ()
Sea Level Pressure  
Sea Level Pressure 29.73 in    
Wind  
Wind Speed 11 mph (SW)    
Max Wind Speed 20 mph    
Max Gust Speed 34 mph    
Visibility 10 miles    
Events      
Averages and records for this station are not official NWS values.
T = Trace of Precipitation, MM = Missing Value Source: NWS Daily Summary

Daily Weather History Graph

Daily Weather History Graph

Search for Another Location

Airport or City:

Trip Planner

Search our weather history database for the weather conditions in past years. The results will help you decide how hot, cold, wet, or windy it might be!

Date:

Astronomy

Jan. 20, 2013 Rise Set
Actual Time 7:12 AM EST 4:45 PM EST
Civil Twilight 6:41 AM EST 5:16 PM EST
Nautical Twilight 6:07 AM EST 5:51 PM EST
Astronomical Twilight 5:33 AM EST 6:25 PM EST
Moon 11:45 AM EST (1/20) 1:41 AM EST (1/20)
Length of Visible Light 10h 34m
Length of Day
9h 32m
Waxing Gibbous, 66% of the Moon is Illuminated
Jan 20
Waxing Gibbous
Jan 26
Full
Feb 3
Last Quarter
Feb 10
New
Feb 17
First Quarter

Hourly Weather History & Observations

Time (EST) Temp. Windchill Dew Point Humidity Pressure Visibility Wind Dir Wind Speed Gust Speed Precip Events Conditions
12:52 AM 37.9 °F 32.1 °F 26.1 °F 62% 29.82 in 10.0 mi SSW 8.1 mph - N/A   Overcast
1:52 AM 37.9 °F 32.1 °F 27.0 °F 65% 29.81 in 10.0 mi SSW 8.1 mph - N/A   Overcast
2:52 AM 37.9 °F 30.5 °F 26.1 °F 62% 29.78 in 10.0 mi SSW 11.5 mph 18.4 mph N/A   Overcast
3:52 AM 37.0 °F 30.4 °F 26.1 °F 65% 29.74 in 10.0 mi SSW 9.2 mph - N/A   Clear
4:52 AM 36.0 °F 29.6 °F 26.1 °F 67% 29.70 in 10.0 mi SSW 8.1 mph - N/A   Clear
5:52 AM 35.1 °F 26.9 °F 25.0 °F 67% 29.66 in 10.0 mi SSW 11.5 mph 20.7 mph N/A   Clear
6:52 AM 35.1 °F 25.9 °F 26.1 °F 70% 29.63 in 10.0 mi South 13.8 mph 23.0 mph N/A   Clear
7:52 AM 36.0 °F 27.1 °F 26.1 °F 67% 29.61 in 10.0 mi SSW 13.8 mph 23.0 mph N/A   Clear
8:52 AM 37.9 °F 30.0 °F 26.1 °F 62% 29.62 in 10.0 mi SSW 12.7 mph 21.9 mph N/A   Clear
9:52 AM 39.9 °F 31.8 °F 25.0 °F 55% 29.59 in 10.0 mi SSW 15.0 mph 25.3 mph N/A   Clear
10:52 AM 42.1 °F 34.9 °F 25.0 °F 51% 29.56 in 10.0 mi SW 13.8 mph 27.6 mph N/A   Clear
11:52 AM 42.1 °F 36.1 °F 25.0 °F 51% 29.56 in 10.0 mi SW 10.4 mph 21.9 mph N/A   Overcast
12:52 PM 37.9 °F 28.2 °F 26.1 °F 62% 29.62 in 10.0 mi West 18.4 mph 34.5 mph N/A   Overcast
1:52 PM 37.9 °F 28.9 °F 21.9 °F 53% 29.62 in 10.0 mi West 16.1 mph 25.3 mph 0.00 in   Partly Cloudy
2:52 PM 39.9 °F 30.5 °F 10.0 °F 29% 29.65 in 10.0 mi WNW 19.6 mph 29.9 mph N/A   Clear
4:52 PM 32.0 °F 22.1 °F 12.0 °F 44% 29.77 in 10.0 mi West 13.8 mph 29.9 mph N/A   Clear
5:52 PM 28.9 °F 18.2 °F 10.0 °F 45% 29.81 in 10.0 mi West 13.8 mph 23.0 mph N/A   Clear
6:52 PM 27.0 °F 15.6 °F 7.0 °F 43% 29.83 in 10.0 mi WSW 13.8 mph 25.3 mph N/A   Clear
7:52 PM 25.0 °F 15.5 °F 7.0 °F 46% 29.85 in 10.0 mi West 9.2 mph 20.7 mph N/A   Clear
8:52 PM 25.0 °F 14.2 °F 7.0 °F 46% 29.87 in 10.0 mi West 11.5 mph 23.0 mph N/A   Mostly Cloudy
9:52 PM 24.1 °F 12.5 °F 10.0 °F 55% 29.90 in 10.0 mi West 12.7 mph 24.2 mph N/A   Overcast
10:52 PM 21.9 °F 11.0 °F 12.0 °F 66% 29.93 in 10.0 mi West 10.4 mph 18.4 mph 0.00 in   Mostly Cloudy
11:52 PM 21.9 °F 13.4 °F 8.1 °F 55% 29.94 in 10.0 mi Variable 6.9 mph - N/A   Overcast